{"data":{"norad_id":43184,"intl_designator":"2018-014E","name":"LEMUR-2-KADI","alt_names":[],"object_type":"PAYLOAD","status":"ACTIVE","operator":null,"country":"US","launch_date":"2018-02-01","launch_site_code":"VOSTO","launch_vehicle":null,"mission":null,"orbit_class":"UNKNOWN","rcs_meters":null,"size_class":null,"mass_kg":null,"dimensions":null,"purposes":["earth_obs"],"wikipedia_slug":null,"has_3d_model":false,"image_url":null,"decayed_at":null,"tle_current":{"epoch":"2026-06-04T00:01:13.493568Z","epoch_age_seconds":9389091,"freshness":"OLD","line1":"1 43184U 18014E   26155.00085062  .05670531  25233-5  13547-2 0  9993","line2":"2 43184  97.4308  86.5413 0010752 218.5886 141.4640 16.29437538459009","mean_motion":16.29437538,"eccentricity":0.0010752,"inclination_deg":97.4308,"raan_deg":86.5413,"arg_perigee_deg":218.5886,"mean_anomaly_deg":141.464,"bstar":0.0013547,"rev_number":45900,"period_min":88.37405340296,"perigee_km":186.98536675661,"apogee_km":201.11820151802,"semimajor_km":6572.1887841373,"source":"CELESTRAK","updated_at":"2026-06-04T09:01:18.473680Z"}}}